| time (UTC) | temp F | wind direction | speed MPH | gust MPH | rain 1hr in | rain 24hr in | rain mn in | humidity % | barometer mb |
| 20260506001554 | 49 | 63 | 0.0 | 2.0 | 0.03 | 0.57 | 0.57 | 93 | 1006.9 |
| 20260506000101 | 49 | 0 | 0.0 | 1.0 | 0.03 | 0.55 | 0.55 | 93 | 1006.9 |
| 20260505234557 | 49 | 70 | 0.0 | 3.0 | 0.09 | 0.55 | 0.55 | 93 | 1006.8 |
| 20260505233057 | 49 | 102 | 0.0 | 3.0 | 0.15 | 0.55 | 0.55 | 93 | 1006.8 |
| 20260505231555 | 49 | 0 | 1.0 | 4.0 | 0.16 | 0.54 | 0.54 | 93 | 1007.4 |
| 20260505230104 | 50 | 69 | 2.0 | 4.0 | 0.17 | 0.52 | 0.52 | 92 | 1007.3 |
| 20260505224557 | 50 | 352 | 2.0 | 7.0 | 0.14 | 0.46 | 0.46 | 92 | 1007.5 |
| 20260505223110 | 51 | 332 | 2.0 | 6.0 | 0.12 | 0.40 | 0.40 | 92 | 1007.0 |
| 20260505221557 | 52 | 90 | 1.0 | 3.0 | 0.13 | 0.38 | 0.38 | 92 | 1006.9 |
| 20260505220112 | 52 | 0 | 0.0 | 4.0 | 0.15 | 0.35 | 0.35 | 92 | 1006.9 |
| 20260505214557 | 53 | 324 | 0.0 | 3.0 | 0.20 | 0.35 | 0.32 | 91 | 1006.7 |
| 20260505213100 | 54 | 61 | 0.0 | 6.0 | 0.18 | 0.30 | 0.27 | 90 | 1006.8 |
| 20260505211558 | 57 | 330 | 1.0 | 4.0 | 0.18 | 0.28 | 0.25 | 92 | 1006.7 |
| 20260505210056 | 57 | 0 | 0.0 | 4.0 | 0.17 | 0.23 | 0.20 | 91 | 1006.7 |
| 20260505204608 | 58 | 0 | 0.0 | 3.0 | 0.09 | 0.15 | 0.12 | 91 | 1006.6 |
| 20260505203118 | 58 | 321 | 0.0 | 1.0 | 0.08 | 0.12 | 0.09 | 91 | 1006.5 |
| 20260505201557 | 58 | 317 | 0.0 | 4.0 | 0.07 | 0.10 | 0.07 | 90 | 1006.6 |
| 20260505194613 | 59 | 325 | 1.0 | 6.0 | 0.03 | 0.06 | 0.03 | 87 | 1006.8 |
| 20260505193109 | 60 | 302 | 2.0 | 9.0 | 0.01 | 0.04 | 0.01 | 84 | 1006.7 |
| 20260505191606 | 62 | 268 | 2.0 | 5.0 | 0.00 | 0.03 | 0.00 | 79 | 1006.6 |
| 20260505190057 | 63 | 259 | 1.0 | 6.0 | 0.00 | 0.03 | 0.00 | 76 | 1006.6 |
| 20260505184556 | 64 | 338 | 2.0 | 8.0 | 0.00 | 0.03 | 0.00 | 74 | 1006.6 |
| 20260505183101 | 64 | 153 | 1.0 | 8.0 | 0.00 | 0.03 | 0.00 | 73 | 1006.7 |
| 20260505181557 | 65 | 242 | 3.0 | 9.0 | 0.00 | 0.03 | 0.00 | 72 | 1006.7 |
| 20260505174558 | 65 | 282 | 3.0 | 15.0 | 0.00 | 0.03 | 0.00 | 71 | 1006.5 |
| 20260505173056 | 65 | 232 | 3.0 | 9.0 | 0.00 | 0.03 | 0.00 | 70 | 1006.5 |
| 20260505171556 | 66 | 254 | 2.0 | 9.0 | 0.00 | 0.03 | 0.00 | 69 | 1006.3 |
| 20260505170055 | 65 | 311 | 5.0 | 13.0 | 0.00 | 0.03 | 0.00 | 68 | 1006.4 |
| 20260505164603 | 66 | 274 | 2.0 | 6.0 | 0.00 | 0.03 | 0.00 | 68 | 1006.4 |
| 20260505163100 | 66 | 150 | 4.0 | 17.0 | 0.00 | 0.03 | 0.00 | 67 | 1006.3 |
| 20260505161557 | 68 | 276 | 2.0 | 13.0 | 0.00 | 0.03 | 0.00 | 65 | 1006.2 |
| 20260505153109 | 69 | 233 | 3.0 | 11.0 | 0.00 | 0.03 | 0.00 | 64 | 1005.3 |
| 20260505151601 | 68 | 166 | 2.0 | 14.0 | 0.00 | 0.03 | 0.00 | 66 | 1004.9 |
| 20260505140105 | 66 | 207 | 3.0 | 9.0 | 0.00 | 0.03 | 0.00 | 71 | 1004.9 |
| 20260505130110 | 62 | 155 | 3.0 | 9.0 | 0.00 | 0.03 | 0.00 | 76 | 1005.2 |
| 20260505124608 | 62 | 255 | 2.0 | 11.0 | 0.00 | 0.03 | 0.00 | 75 | 1005.1 |
| 20260505123117 | 62 | 262 | 1.0 | 8.0 | 0.00 | 0.03 | 0.00 | 75 | 1005.1 |
| 20260505121556 | 61 | 231 | 1.0 | 8.0 | 0.00 | 0.03 | 0.00 | 75 | 1004.8 |
| 20260505120100 | 61 | 216 | 2.0 | 9.0 | 0.00 | 0.03 | 0.00 | 75 | 1004.0 |
| 20260505114558 | 61 | 230 | 2.0 | 9.0 | 0.00 | 0.03 | 0.00 | 76 | 1003.6 |
| 20260505113101 | 61 | 210 | 4.0 | 12.0 | 0.00 | 0.03 | 0.00 | 76 | 1003.5 |
| 20260505111558 | 61 | 193 | 3.0 | 15.0 | 0.00 | 0.03 | 0.00 | 75 | 1003.6 |
| 20260505110105 | 63 | 237 | 3.0 | 9.0 | 0.00 | 0.03 | 0.00 | 68 | 1003.7 |
| 20260505101603 | 64 | 234 | 2.0 | 11.0 | 0.00 | 0.03 | 0.00 | 68 | 1003.3 |
| 20260505100057 | 65 | 152 | 5.0 | 14.0 | 0.00 | 0.03 | 0.00 | 68 | 1003.0 |
| 20260505094601 | 65 | 224 | 3.0 | 16.0 | 0.00 | 0.03 | 0.00 | 67 | 1002.8 |
| 20260505093058 | 66 | 233 | 5.0 | 16.0 | 0.00 | 0.03 | 0.00 | 65 | 1002.5 |
| 20260505091559 | 66 | 205 | 2.0 | 13.0 | 0.00 | 0.03 | 0.00 | 65 | 1002.3 |
| 20260505090101 | 66 | 114 | 3.0 | 14.0 | 0.00 | 0.03 | 0.00 | 64 | 1002.0 |
| 20260505084557 | 67 | 188 | 4.0 | 15.0 | 0.00 | 0.03 | 0.00 | 64 | 1002.1 |
| 20260505083057 | 67 | 296 | 5.0 | 22.0 | 0.00 | 0.03 | 0.00 | 63 | 1002.1 |
| 20260505081601 | 67 | 155 | 4.0 | 13.0 | 0.00 | 0.03 | 0.00 | 64 | 1002.2 |
| 20260505080058 | 66 | 313 | 3.0 | 13.0 | 0.00 | 0.03 | 0.00 | 66 | 1002.0 |
| 20260505074610 | 66 | 198 | 4.0 | 16.0 | 0.00 | 0.03 | 0.00 | 67 | 1001.8 |
| 20260505073102 | 66 | 207 | 6.0 | 12.0 | 0.00 | 0.03 | 0.00 | 67 | 1001.6 |
| 20260505071553 | 66 | 225 | 5.0 | 8.0 | 0.00 | 0.03 | 0.00 | 68 | 1001.7 |
| 20260505070055 | 66 | 208 | 5.0 | 11.0 | 0.00 | 0.03 | 0.00 | 67 | 1001.6 |
| 20260505064553 | 67 | 216 | 5.0 | 12.0 | 0.00 | 0.03 | 0.00 | 65 | 1001.9 |
| 20260505063058 | 67 | 246 | 3.0 | 18.0 | 0.00 | 0.03 | 0.00 | 65 | 1001.8 |
| 20260505061619 | 67 | 198 | 4.0 | 11.0 | 0.00 | 0.03 | 0.00 | 66 | 1001.9 |
| 20260505060058 | 67 | 195 | 4.0 | 11.0 | 0.00 | 0.03 | 0.00 | 66 | 1002.1 |
| 20260505054609 | 67 | 205 | 5.0 | 13.0 | 0.00 | 0.03 | 0.00 | 65 | 1002.3 |
| 20260505053056 | 67 | 165 | 5.0 | 15.0 | 0.00 | 0.03 | 0.00 | 65 | 1002.4 |
| 20260505051558 | 67 | 179 | 4.0 | 17.0 | 0.00 | 0.03 | 0.00 | 65 | 1002.5 |
| 20260505041554 | 67 | 158 | 4.0 | 13.0 | 0.00 | 0.03 | 0.00 | 66 | 1002.8 |
| 20260505040059 | 66 | 250 | 5.0 | 13.0 | 0.00 | 0.03 | 0.00 | 66 | 1002.9 |
| 20260505034554 | 66 | 224 | 3.0 | 11.0 | 0.00 | 0.03 | 0.03 | 67 | 1002.9 |
| 20260505033056 | 66 | 221 | 5.0 | 13.0 | 0.00 | 0.03 | 0.03 | 66 | 1003.0 |
| 20260505031558 | 66 | 156 | 6.0 | 12.0 | 0.00 | 0.03 | 0.03 | 66 | 1003.2 |
| 20260505030059 | 67 | 181 | 3.0 | 11.0 | 0.00 | 0.03 | 0.03 | 65 | 1003.2 |
| 20260505024610 | 67 | 284 | 3.0 | 11.0 | 0.00 | 0.03 | 0.03 | 64 | 1003.1 |
| 20260505023058 | 67 | 221 | 4.0 | 16.0 | 0.00 | 0.03 | 0.03 | 64 | 1003.2 |
| 20260505021613 | 67 | 173 | 4.0 | 11.0 | 0.00 | 0.03 | 0.03 | 62 | 1003.1 |
| 20260505020053 | 68 | 162 | 4.0 | 12.0 | 0.00 | 0.03 | 0.03 | 61 | 1003.4 |
| 20260505014555 | 68 | 228 | 4.0 | 13.0 | 0.00 | 0.03 | 0.03 | 60 | 1003.5 |
| 20260505013058 | 68 | 193 | 4.0 | 12.0 | 0.00 | 0.03 | 0.03 | 59 | 1003.2 |
| 20260505011557 | 69 | 181 | 2.0 | 9.0 | 0.00 | 0.03 | 0.03 | 58 | 1003.0 |
| 20260505010056 | 70 | 250 | 4.0 | 10.0 | 0.00 | 0.03 | 0.03 | 56 | 1002.8 |
| 20260505004601 | 70 | 246 | 4.0 | 8.0 | 0.00 | 0.03 | 0.03 | 56 | 1002.6 |
| 20260505003058 | 70 | 227 | 3.0 | 8.0 | 0.00 | 0.03 | 0.03 | 56 | 1002.4 |